GEMSat

operational
NORAD ID: 39475 Int'l Des: 2013-072 Owner: NROC/CALP Country: US
LEORETROGRADE

About GEMSat

Description loading...

Live Position

Loading 3D Globe...

Upcoming Passes

Altitude History

Altitude vs Time

uPlot chart will show altitude changes over time

Two-Line Element Set

1 39475U 13072P 26049.78949558 .00006027 00000-0 38636-3 0 9991
2 39475 120.4334 40.2979 0193300 141.3685 220.1380 14.96096112 96844
Epoch: Feb 18, 2026 • Age: 12 hours

Current Status

Altitude 666.5 km
Velocity 7.49 km/s
Sub-Earth Point -58.86°S, 112.26°W
Launch Date Dec 6, 2013
Age 12.2 years
Type other

Technical Details

Classification Payload
Mass 45.00 kg
Dry Mass 45.00 kg
Total Mass 45.00 kg
Length 0.50 m
Diameter 0.50 m
Span 0.50 m
Shape Box
Manufacturer USNPS
Bus Type NPSCul
Phase Status Attached in Orbit
Owner/State NROC/CALP/US

Large Constellations

Loading constellations...